Regional Weather Roundup
Issued by NWS

Home | Current Version | Previous Version | Graphics & Text | Print | Product List | Glossary Off
Versions: 1 2 3 4 5 6 7 8 9 10 11 12 13 14 15 16 17 18 19 20 21 22 23 24 25 26 27 28 29 30 31 32 33 34 35 36 37 38 39 40 41 42 43 44 45 46 47 48 49 50

000
ASUS43 KTOP 131308
RWRKS

WEATHER ROUNDUP FOR KANSAS
NATIONAL WEATHER SERVICE GOODLAND KS
700 AM CST WED DEC 13 2017

NOTE:  "FAIR" INDICATES FEW OR NO CLOUDS BELOW 12,000 FEET WITH NO
SIGNIFICANT WEATHER AND/OR OBSTRUCTIONS TO VISIBILITY.

KSZ001>006-013>018-027>032-041>047-131400-
NORTHWEST KANSAS

CITY           SKY/WX    TMP DP  RH WIND       PRES   REMARKS
GOODLAND       CLOUDY    45  10  24 NW16      30.03R
HAYS           CLEAR     45  17  32 NW16      29.92R
HILL CITY      CLOUDY    46  16  30 NW10      29.95R
RUSSELL        CLEAR     44  19  36 NW16      29.89R
$$

KSZ061>065-074>080-084>089-131400-
SOUTHWEST KANSAS

CITY           SKY/WX    TMP DP  RH WIND       PRES   REMARKS
DODGE CITY     CLEAR     39  15  37 NW13      29.97R WCI  31
ELKHART        CLOUDY    43  19  37 NW9       30.03R
GARDEN CITY    CLEAR     39  14  36 N14       29.99R WCI  31
GREAT BEND     CLEAR     42  17  36 NW13      29.92R
LIBERAL        CLEAR     37  15  40 NW14      30.00R WCI  28
PRATT          CLEAR     42  15  34 NW14      29.92R
$$

KSZ066>073-081>083-090>101-131400-
SOUTHEAST KANSAS

CITY           SKY/WX    TMP DP  RH WIND       PRES   REMARKS
CHANUTE        CLEAR     35  26  69 SW8       29.82R
COFFEYVILLE    CLEAR     34  27  75 S10       29.85S WCI  26
HUTCHINSON     CLEAR     40  20  44 NW14      29.86R WCI  32
MEDICINE LODGE   N/A     35  19  52 NW8       29.89R
NEWTON         CLOUDY    37  20  50 NW12      29.85R WCI  29
PARSONS        CLEAR     33  27  78 S8        29.83S
WICHITA INTL   CLOUDY    31  23  72 CALM      29.85R
WICHITA JABRA  CLOUDY    38  22  52 W12       29.85R WCI  30
WICHITA MCCONL CLOUDY    33  22  63 W5        29.85R
WINFIELD       CLOUDY    25  22  88 SW3       29.88R
$$

KSZ007>012-019>026-033>040-048>060-102>105-131400-
NORTHEAST KANSAS

CITY           SKY/WX    TMP DP  RH WIND       PRES   REMARKS
CONCORDIA      CLOUDY    44  21  40 W13       29.82R
EMPORIA        CLEAR     40  21  46 W12       29.79R WCI  33
LAWRENCE       CLEAR     32  25  75 W6        29.75R
MANHATTAN      PTCLDY    29  20  69 SW5       29.80R
MARYSVILLE     MOCLDY    46  25  42 NW17      29.75R
OLATHE IND     CLEAR     34  27  75 SW13      29.75R WCI  25
OLATHE EXE     CLEAR     34  26  72 SW9       29.73S
SALINA         CLEAR     45  20  36 NW13      29.85R
TOPEKA BILLARD CLEAR     37  25  61 W5        29.75R
TOPEKA FORBES  CLEAR     32  24  72 W7        29.75R
$$




USA.gov is the U.S. government's official web portal to all federal, state and local government web resources and services.